Simultaneous Nadir Overpasses (SNOs) Predictions

Prediction of SNOs between AQUA and NPP Satellite Orbit:

Table of predicted SNOs for the next 14.0 days since TLE Epoch: 8/28/2020
Index Date (AQUA) Time (AQUA) Lat,Lon (AQUA) SZA (AQUA ) Date (NPP) Time (NPP) Lat,Lon (NPP) SZA (NPP ) Distance(km) Time Diff (sec)
1 08/31/2020 06:21:56 75.54, -37.77 89.47 08/31/2020 06:21:50 75.53, -37.82 89.49 1.77 6
2 08/31/2020 07:11:01 -76.63, 133.30 91.79 08/31/2020 07:12:12 -76.63, 133.29 91.84 0.39 71
3 09/02/2020 21:49:17 -74.66, -91.87 88.66 09/02/2020 21:48:21 -74.65, -91.94 88.59 2.17 56
4 09/02/2020 22:38:19 75.83, 78.96 90.05 09/02/2020 22:38:40 75.82, 78.87 90.05 2.65 21
5 09/05/2020 14:05:29 -75.46, 26.12 88.63 09/05/2020 14:04:59 -75.47, 26.20 88.62 2.42 30
6 09/05/2020 14:54:32 76.55,-162.86 90.14 09/05/2020 14:55:19 76.56,-162.76 90.08 2.78 47
7 09/08/2020 05:37:20 59.36, -46.40 108.44 09/08/2020 05:36:07 59.58, -47.63 108.77 73.90 73
8 09/08/2020 06:21:51 -75.80, 142.98 88.08 09/08/2020 06:21:48 -75.80, 143.03 88.09 1.60 3
9 09/08/2020 07:10:26 78.14, -40.59 89.14 09/08/2020 07:11:40 78.05, -40.33 89.06 11.53 74
10 09/10/2020 21:49:07 75.04, 89.10 93.71 09/10/2020 21:48:14 75.04, 89.16 93.74 1.91 53
